Hutchinson, MN

11:40 PM CDT on March 23, 2017 (GMT -0500)
Hutchinson Municipal-Butler

Weather History for KHCD - August, 2013

Change the Weather History Date:

Wednesday, August 7, 2013

  Actual Average Record
Temperature  
Mean Temperature 64 °F -  
Max Temperature 73 °F 81 °F 98 °F (1983)
Min Temperature 56 °F 58 °F 45 °F (1972)
Growing Degree Days 14 (Base 50)    
Moisture  
Dew Point 57 °F    
Average Humidity 77    
Maximum Humidity 99    
Minimum Humidity 49    
Precipitation  
Precipitation 0.00 in - - ()
Sea Level Pressure  
Sea Level Pressure 29.97 in    
Wind  
Wind Speed 5 mph (NNW)    
Max Wind Speed 10 mph    
Max Gust Speed 21 mph    
Visibility 10 miles    
Events      
Averages and records for this station are not official NWS values.
T = Trace of Precipitation, MM = Missing Value Source: NWS Daily Summary

Daily Weather History Graph

Daily Weather History Graph

Search for Another Location

Airport or City:

Trip Planner

Search our weather history database for the weather conditions in past years. The results will help you decide how hot, cold, wet, or windy it might be!

Date:

Astronomy

Aug. 07, 2013 Rise Set
Actual Time 6:10 AM CDT 8:35 PM CDT
Civil Twilight 5:37 AM CDT 9:07 PM CDT
Nautical Twilight 4:56 AM CDT 9:48 PM CDT
Astronomical Twilight 4:10 AM CDT 10:34 PM CDT
Moon 7:04 AM CDT (8/7) 8:36 PM CDT (8/7)
Length of Visible Light 15h 30m
Length of Day
14h 24m
New Moon, 1% of the Moon is Illuminated
Aug 7
New Moon
Aug 14
First Quarter
Aug 20
Full
Aug 28
Last Quarter
Sep 5
New

Hourly Weather History & Observations

Time (CDT) Temp. Dew Point Humidity Pressure Visibility Wind Dir Wind Speed Gust Speed Precip Events Conditions
12:13 AM 61.7 °F 60.8 °F 97% 29.83 in 10.0 mi WNW 4.6 mph - N/A   Clear
12:33 AM 62.1 °F 60.8 °F 96% 29.84 in 10.0 mi WNW 5.8 mph - N/A   Clear
12:54 AM 61.7 °F 60.8 °F 97% 29.84 in 10.0 mi WNW 6.9 mph - N/A   Clear
1:13 AM 61.7 °F 60.8 °F 97% 29.85 in 10.0 mi WNW 4.6 mph - N/A   Clear
1:34 AM 61.2 °F 60.6 °F 98% 29.85 in 10.0 mi WNW 4.6 mph - N/A   Clear
1:54 AM 61.0 °F 60.4 °F 98% 29.86 in 10.0 mi West 3.5 mph - N/A   Clear
2:13 AM 61.0 °F 60.4 °F 98% 29.86 in 10.0 mi WNW 4.6 mph - N/A   Clear
2:34 AM 61.0 °F 60.4 °F 98% 29.86 in 10.0 mi WNW 4.6 mph - N/A   Clear
2:54 AM 61.0 °F 60.4 °F 98% 29.86 in 10.0 mi WNW 4.6 mph - N/A   Clear
3:14 AM 60.8 °F 60.6 °F 99% 29.86 in 10.0 mi NW 5.8 mph - N/A   Clear
3:34 AM 61.0 °F 60.8 °F 99% 29.87 in 10.0 mi NW 4.6 mph - N/A   Clear
3:53 AM 60.8 °F 60.4 °F 99% 29.87 in 10.0 mi WNW 4.6 mph - N/A   Clear
4:13 AM 60.8 °F 60.3 °F 98% 29.88 in 10.0 mi WNW 4.6 mph - N/A   Clear
4:34 AM 60.8 °F 60.3 °F 98% 29.89 in 10.0 mi NW 6.9 mph - N/A   Clear
4:54 AM 60.8 °F 60.1 °F 97% 29.88 in 10.0 mi NNW 5.8 mph - N/A   Clear
5:13 AM 61.0 °F 60.3 °F 97% 29.89 in 10.0 mi NNW 6.9 mph - N/A   Clear
5:34 AM 60.8 °F 59.9 °F 97% 29.90 in 10.0 mi NW 5.8 mph - N/A   Scattered Clouds
5:53 AM 60.8 °F 59.7 °F 96% 29.90 in 10.0 mi NW 5.8 mph - N/A   Scattered Clouds
6:13 AM 60.3 °F 59.4 °F 97% 29.91 in 10.0 mi NNW 5.8 mph - N/A   Scattered Clouds
6:34 AM 60.8 °F 59.7 °F 96% 29.92 in 10.0 mi NNW 8.1 mph - N/A   Overcast
6:54 AM 60.6 °F 59.2 °F 95% 29.92 in 10.0 mi NNW 6.9 mph - N/A   Mostly Cloudy
7:13 AM 60.8 °F 59.2 °F 94% 29.94 in 10.0 mi NNW 6.9 mph - N/A   Mostly Cloudy
7:34 AM 60.3 °F 58.6 °F 94% 29.95 in 10.0 mi NNW 6.9 mph - N/A   Mostly Cloudy
7:53 AM 61.0 °F 58.8 °F 93% 29.96 in 10.0 mi North 5.8 mph - N/A   Mostly Cloudy
8:14 AM 61.2 °F 57.7 °F 88% 29.97 in 10.0 mi North 5.8 mph - N/A   Scattered Clouds
8:33 AM 61.7 °F 57.4 °F 86% 29.97 in 10.0 mi North 5.8 mph - N/A   Clear
8:54 AM 62.2 °F 57.0 °F 83% 29.98 in 10.0 mi North 5.8 mph 16.1 mph N/A   Clear
9:14 AM 62.6 °F 56.5 °F 80% 29.98 in 10.0 mi North 6.9 mph - N/A   Clear
9:33 AM 63.5 °F 57.0 °F 79% 29.99 in 10.0 mi North 6.9 mph 17.3 mph N/A   Clear
9:54 AM 64.4 °F 56.7 °F 76% 29.99 in 10.0 mi NNE 9.2 mph - N/A   Clear
10:12 AM 64.8 °F 54.9 °F 70% 30.00 in 10.0 mi North 6.9 mph - N/A   Clear
10:34 AM 66.2 °F 55.6 °F 69% 30.00 in 10.0 mi North 10.4 mph - N/A   Clear
10:53 AM 66.4 °F 54.3 °F 65% 30.00 in 10.0 mi North 8.1 mph - N/A   Clear
11:14 AM 67.3 °F 54.9 °F 64% 30.01 in 10.0 mi NNW 9.2 mph - N/A   Clear
11:34 AM 67.3 °F 53.6 °F 61% 30.02 in 10.0 mi NNE 6.9 mph - N/A   Clear
11:52 AM 67.8 °F 52.5 °F 58% 30.03 in 10.0 mi NNW 6.9 mph - N/A   Clear
12:14 PM 68.5 °F 54.1 °F 60% 30.03 in 10.0 mi NW 9.2 mph 20.7 mph N/A   Clear
12:33 PM 68.7 °F 52.7 °F 57% 30.03 in 10.0 mi NNW 10.4 mph - N/A   Clear
12:54 PM 69.4 °F 53.1 °F 56% 30.02 in 10.0 mi NNW 6.9 mph - N/A   Clear
1:13 PM 70.0 °F 52.0 °F 53% 30.02 in 10.0 mi NNW 9.2 mph - N/A   Clear
1:34 PM 70.7 °F 52.7 °F 53% 30.02 in 10.0 mi NNW 8.1 mph - N/A   Clear
1:54 PM 71.6 °F 52.2 °F 50% 30.02 in 10.0 mi North 6.9 mph - N/A   Clear
2:13 PM 71.6 °F 52.3 °F 51% 30.02 in 10.0 mi NNE 8.1 mph - N/A   Clear
2:34 PM 72.1 °F 53.8 °F 52% 30.02 in 10.0 mi North 4.6 mph - N/A   Clear
2:53 PM 71.8 °F 53.2 °F 52% 30.02 in 10.0 mi North 4.6 mph - N/A   Clear
3:12 PM 73.0 °F 54.5 °F 52% 30.02 in 10.0 mi NW 6.9 mph - N/A   Clear
3:34 PM 72.7 °F 54.1 °F 52% 30.02 in 10.0 mi North 3.5 mph - N/A   Clear
3:53 PM 72.5 °F 53.1 °F 50% 30.02 in 10.0 mi North 3.5 mph - N/A   Clear
4:13 PM 73.6 °F 54.1 °F 50% 30.01 in 10.0 mi NNW 5.8 mph - N/A   Clear
4:33 PM 73.4 °F 52.9 °F 49% 30.01 in 10.0 mi NNW 9.2 mph - N/A   Clear
4:54 PM 73.4 °F 53.6 °F 50% 30.01 in 10.0 mi NW 6.9 mph - N/A   Clear
5:14 PM 73.0 °F 53.1 °F 49% 30.01 in 10.0 mi WNW 3.5 mph - N/A   Clear
5:34 PM 73.6 °F 54.1 °F 50% 30.01 in 10.0 mi North 3.5 mph - N/A   Clear
5:53 PM 73.6 °F 53.6 °F 50% 30.01 in 10.0 mi North 4.6 mph - N/A   Clear
6:14 PM 73.2 °F 53.4 °F 50% 30.01 in 10.0 mi NNE 5.8 mph - N/A   Clear
6:34 PM 72.9 °F 53.4 °F 50% 30.01 in 10.0 mi North 4.6 mph - N/A   Clear
6:54 PM 72.5 °F 52.7 °F 50% 30.01 in 10.0 mi North 3.5 mph - N/A   Clear
7:13 PM 72.0 °F 52.5 °F 50% 30.01 in 10.0 mi Calm Calm - N/A   Clear
7:33 PM 71.1 °F 53.8 °F 54% 30.01 in 10.0 mi NNW 3.5 mph - N/A   Clear
7:54 PM 69.4 °F 56.1 °F 62% 30.01 in 10.0 mi Calm Calm - N/A   Clear
8:13 PM 68.4 °F 56.3 °F 65% 30.02 in 10.0 mi Calm Calm - N/A   Clear
8:33 PM 64.4 °F 59.4 °F 84% 30.02 in 10.0 mi Calm Calm - N/A   Clear
8:53 PM 61.7 °F 59.7 °F 93% 30.03 in 10.0 mi Calm Calm - N/A   Clear
9:14 PM 60.6 °F 58.1 °F 91% 30.04 in 10.0 mi Calm Calm - N/A   Clear
9:33 PM 59.9 °F 57.9 °F 93% 30.04 in 10.0 mi Calm Calm - N/A   Clear
9:53 PM 59.0 °F 58.1 °F 97% 30.05 in 10.0 mi Calm Calm - N/A   Clear
10:14 PM 58.5 °F 57.4 °F 96% 30.05 in 10.0 mi Calm Calm - N/A   Clear
10:33 PM 58.1 °F 57.4 °F 97% 30.05 in 10.0 mi Calm Calm - N/A   Clear
10:53 PM 57.6 °F 56.8 °F 97% 30.05 in 10.0 mi Calm Calm - N/A   Clear
11:13 PM 57.4 °F 56.7 °F 97% 30.05 in 10.0 mi Calm Calm - N/A   Clear
11:34 PM 56.5 °F 55.9 °F 98% 30.05 in 10.0 mi Calm Calm - N/A   Clear
11:54 PM 56.3 °F 55.8 °F 98% 30.05 in 10.0 mi Calm Calm - N/A   Clear